Погода в Бишкуле

Казахстан     54°46′22″N   69°06′08″E
темп.,
°C
ветер,
м/с
пор.,
м/с
влажн.,
%
обл.,
%
осадки,
мм/ч
давл.,
гПа
погр.,
м
26 июня, вс
вс2600:00+16сз359711 4.0 999173
03:00+13зсз379554 0.0 999131
06:00+14з38944 0.0 999218
09:00+17сз577843 0.0 1000563
12:00+19зсз45591 0.0 10011252
15:00+19з666190 0.3 10001280
18:00+17ссз897245 1.1 1001981
21:00+13сз587314 0.0 1002531
27 июня, пн
пн2700:00+10сз4881100 0.0 1004364
03:00+10зсз4874100 0.0 1004872
06:00+9зсз5883100 0.1 10041054
09:00+9зсз6984100 0.1 1005986
12:00+12зсз797582 0.1 1006989
15:00+12зсз687471 0.1 1007970
18:00+11зсз6977100 0.1 10071112
21:00+12зсз5979100 0.0 1008760
28 июня, вт
вт2800:00+10зюз3689100 0.1 1008154
03:00+11юз4889100 0.1 1006288
06:00+10ююз41087100 0.1 1006353
09:00+12ююз71483100 0.3 1005541
12:00+14юз71080100 0.6 1003904
15:00+16з577588 0.1 10031076
18:00+16сз4670100 0.7 1003841
21:00+13ссз3582100 0.1 1003155
29 июня, ср
ср2900:00+10ссз3695100 0.3 1003141
03:00+9с3795100 0.1 1001215
06:00+9ссз4792100 0.3 1000378
09:00+9сз589397 1.1 999464
12:00+9сз71090100 1.6 1000711
15:00+13сз8963100 0.7 10001686
18:00+11зсз6868100 0.8 10011389
21:00+9зсз6977100 0.1 1001763
30 июня, чт
чт3000:00+9сз71189100 0.1 1000729
03:00+8сз61189100 0.1 1001568
06:00+9зсз714845 0.1 1001583
09:00+12зсз710705 0.0 1002639
12:00+16зсз795433 0.1 10031844
15:00+16зсз6752100 0.0 10031792
18:00+17зсз4556100 0.1 10041416
21:00+13зсз2376100 0.4 100460